Starlink 31462

operational
NORAD ID: 59466 Int'l Des: 2024-068 Owner: SPXS Country: US Constellation: starlink
LEOCIRCULAR

About Starlink 31462

Description loading...

Live Position

Loading 3D Globe...

Upcoming Passes

Altitude History

Altitude vs Time

uPlot chart will show altitude changes over time

Two-Line Element Set

1 59466U 24068M 26033.57742628 .00010131 00000-0 37762-3 0 9999
2 59466 42.9988 232.7176 0001023 285.8443 74.2296 15.27541716103159
Epoch: Feb 2, 2026 • Age: 22 hours

Current Status

Altitude 495.1 km
Velocity 7.62 km/s
Sub-Earth Point -41.65°S, 149.99°W
Launch Date Apr 10, 2024
Age 1.8 years
Type internet

Technical Details

Classification Payload
Mass 730.00 kg
Dry Mass 700.00 kg
Total Mass 730.00 kg
Length 0.30 m
Diameter 4.10 m
Span 29.00 m
Shape Box + pan
Manufacturer SPXS
Bus Type Starlink V2M
Phase Status In Orbit
Owner/State SPXS/US

Large Constellations

Loading constellations...